,,,PA_Meas_PMT16A,,PR_Meas_QMR101_102,,RH_Meas_QMH101,,SR_Meas_QMS101,,TA_Meas_QMH101,,GenWind,,GenWind,
date,time,status,PA,status,PR,status,RH,status,SR,status,TA,status,DirAvg,status,SpdAvg,
2009-06-28, 00:00:05,VALID,1000.49,VALID,0,VALID,93.234,VALID,0,VALID,23.5061,VALID,294,VALID,0.130078,
2009-06-28, 00:01:05,VALID,1000.45,VALID,0,VALID,93.2568,VALID,0,VALID,23.5061,VALID,294,VALID,0.0578125,
2009-06-28, 00:02:05,VALID,1000.4,VALID,0,VALID,93.3103,VALID,0,VALID,23.5061,VALID,294,VALID,0.169531,
2009-06-28, 00:03:05,VALID,1000.41,VALID,0,VALID,93.3789,VALID,0,VALID,23.5274,VALID,294,VALID,0.375391,
2009-06-28, 00:04:05,VALID,1000.37,VALID,0,VALID,93.3866,VALID,0,VALID,23.5061,VALID,294,VALID,0.229687,
2009-06-28, 00:05:05,VALID,1000.39,VALID,0,VALID,93.3713,VALID,0,VALID,23.5061,VALID,294,VALID,0.0148437,
2009-06-28, 00:06:05,VALID,1000.4,VALID,0,VALID,93.3866,VALID,0,VALID,23.5061,VALID,294,VALID,0,
2009-06-28, 00:07:05,VALID,1000.42,VALID,0,VALID,93.3942,VALID,0,VALID,23.4866,VALID,294,VALID,0.00429688,
2009-06-28, 00:08:05,VALID,1000.42,VALID,0,VALID,93.4171,VALID,0,VALID,23.4866,VALID,294,VALID,0,
2009-06-28, 00:09:05,VALID,1000.41,VALID,0,VALID,93.4323,VALID,0,VALID,23.4653,VALID,294,VALID,0,
2009-06-28, 00:10:05,VALID,1000.41,VALID,0,VALID,93.4476,VALID,0,VALID,23.4866,VALID,294,VALID,0.465625,
2009-06-28, 00:11:05,VALID,1000.43,VALID,0,VALID,93.501,VALID,0,VALID,23.4866,VALID,346,VALID,0.689453,
2009-06-28, 00:12:05,VALID,1000.44,VALID,0,VALID,93.6002,VALID,0,VALID,23.4866,VALID,346,VALID,0.675781,
2009-06-28, 00:13:05,VALID,1000.46,VALID,0,VALID,93.5926,VALID,0,VALID,23.5079,VALID,346,VALID,0.58125,
2009-06-28, 00:14:05,VALID,1000.43,VALID,0,VALID,93.4934,VALID,0,VALID,23.4866,VALID,346,VALID,0.714063,
2009-06-28, 00:15:05,VALID,1000.43,VALID,0,VALID,93.6078,VALID,0,VALID,23.5061,VALID,346,VALID,0.775391,
2009-06-28, 00:16:05,VALID,1000.41,VALID,0,VALID,93.5468,VALID,0,VALID,23.5256,VALID,346,VALID,0.763281,
2009-06-28, 00:17:05,VALID,1000.42,VALID,0,VALID,93.3789,VALID,0,VALID,23.5256,VALID,98,VALID,1.15508,
2009-06-28, 00:18:05,VALID,1000.41,VALID,0,VALID,93.2111,VALID,0,VALID,23.5646,VALID,93,VALID,1.27656,
2009-06-28, 00:19:05,VALID,1000.38,VALID,0,VALID,93.089,VALID,0,VALID,23.5646,VALID,94,VALID,1.30547,
2009-06-28, 00:20:05,VALID,1000.38,VALID,0,VALID,93.089,VALID,0,VALID,23.5451,VALID,102,VALID,1.17695,
2009-06-28, 00:21:05,VALID,1000.37,VALID,0,VALID,93.1729,VALID,0,VALID,23.5646,VALID,105,VALID,0.959766,
2009-06-28, 00:22:05,VALID,1000.34,VALID,0,VALID,93.1958,VALID,0,VALID,23.5646,VALID,98,VALID,1.225,
2009-06-28, 00:23:05,VALID,1000.32,VALID,0,VALID,93.2187,VALID,0,VALID,23.5646,VALID,84,VALID,1.38398,
2009-06-28, 00:24:05,VALID,1000.3,VALID,0,VALID,93.2111,VALID,0,VALID,23.5451,VALID,78,VALID,1.1293,
2009-06-28, 00:25:05,VALID,1000.31,VALID,0,VALID,93.1805,VALID,0,VALID,23.5256,VALID,87,VALID,0.904297,
2009-06-28, 00:26:05,VALID,1000.32,VALID,0,VALID,93.1577,VALID,0,VALID,23.5469,VALID,85,VALID,1.02656,
2009-06-28, 00:27:05,VALID,1000.25,VALID,0,VALID,93.1271,VALID,0,VALID,23.5061,VALID,66,VALID,0.762109,
2009-06-28, 00:28:05,VALID,1000.28,VALID,0,VALID,93.0661,VALID,0,VALID,23.5061,VALID,63,VALID,0.4125,
2009-06-28, 00:29:05,VALID,1000.29,VALID,0,VALID,93.0585,VALID,0,VALID,23.4671,VALID,63,VALID,0.0539063,
2009-06-28, 00:30:05,VALID,1000.28,VALID,0,VALID,93.0737,VALID,0,VALID,23.4475,VALID,63,VALID,0.147266,
2009-06-28, 00:31:05,VALID,1000.28,VALID,0,VALID,93.0661,VALID,0,VALID,23.4475,VALID,63,VALID,0.195703,
2009-06-28, 00:32:05,VALID,1000.28,VALID,0,VALID,93.0585,VALID,0,VALID,23.428,VALID,63,VALID,0,
2009-06-28, 00:33:05,VALID,1000.25,VALID,0,VALID,93.0737,VALID,0,VALID,23.4085,VALID,63,VALID,0.107031,
2009-06-28, 00:34:05,VALID,1000.28,VALID,0,VALID,93.1043,VALID,0,VALID,23.4298,VALID,10,VALID,0.497266,
2009-06-28, 00:35:05,VALID,1000.27,VALID,0,VALID,93.1577,VALID,0,VALID,23.389,VALID,3,VALID,0.619531,
2009-06-28, 00:36:05,VALID,1000.28,VALID,0,VALID,93.2111,VALID,0,VALID,23.4085,VALID,3,VALID,0.595703,
2009-06-28, 00:37:05,VALID,1000.3,VALID,0,VALID,93.2874,VALID,0,VALID,23.428,VALID,359,VALID,0.523047,
2009-06-28, 00:38:05,VALID,1000.27,VALID,0,VALID,93.3331,VALID,0,VALID,23.428,VALID,358,VALID,0.720312,
2009-06-28, 00:39:05,VALID,1000.28,VALID,0,VALID,93.3942,VALID,0,VALID,23.428,VALID,349,VALID,0.787891,
2009-06-28, 00:40:05,VALID,1000.3,VALID,0,VALID,93.4552,VALID,0,VALID,23.4493,VALID,349,VALID,0.816797,
2009-06-28, 00:41:05,VALID,1000.31,VALID,0,VALID,93.4934,VALID,0,VALID,23.4475,VALID,349,VALID,1.08359,
2009-06-28, 00:42:05,VALID,1000.32,VALID,0,VALID,93.4934,VALID,0,VALID,23.4688,VALID,349,VALID,0.755078,
2009-06-28, 00:43:05,VALID,1000.3,VALID,0,VALID,93.4247,VALID,0,VALID,23.4493,VALID,349,VALID,0.670703,
2009-06-28, 00:44:05,VALID,1000.36,VALID,0,VALID,93.501,VALID,0,VALID,23.4298,VALID,349,VALID,0.4875,
2009-06-28, 00:45:05,VALID,1000.34,VALID,0,VALID,93.4857,VALID,0,VALID,23.4298,VALID,349,VALID,0.564844,
2009-06-28, 00:46:05,VALID,1000.34,VALID,0,VALID,93.3713,VALID,0,VALID,23.4103,VALID,7,VALID,1.04414,
2009-06-28, 00:47:05,VALID,1000.35,VALID,0,VALID,93.2492,VALID,0,VALID,23.35,VALID,19,VALID,0.955859,
2009-06-28, 00:48:05,VALID,1000.32,VALID,0,VALID,93.1958,VALID,0,VALID,23.3323,VALID,27,VALID,0.888281,
2009-06-28, 00:49:05,VALID,1000.35,VALID,0,VALID,93.1805,VALID,0,VALID,23.3127,VALID,20,VALID,0.708203,
2009-06-28, 00:50:05,VALID,1000.32,VALID,0,VALID,93.1805,VALID,0,VALID,23.2932,VALID,20,VALID,0.752734,
2009-06-28, 00:51:05,VALID,1000.32,VALID,0,VALID,93.1577,VALID,0,VALID,23.2737,VALID,20,VALID,0.711719,
2009-06-28, 00:52:05,VALID,1000.34,VALID,0,VALID,93.1882,VALID,0,VALID,23.2932,VALID,20,VALID,0.833203,
2009-06-28, 00:53:05,VALID,1000.32,VALID,0,VALID,93.1653,VALID,0,VALID,23.2737,VALID,20,VALID,0.667969,
2009-06-28, 00:54:05,VALID,1000.29,VALID,0,VALID,93.1577,VALID,0,VALID,23.2737,VALID,21,VALID,0.999609,
2009-06-28, 00:55:05,VALID,1000.29,VALID,0,VALID,93.0585,VALID,0,VALID,23.2737,VALID,34,VALID,0.813672,
2009-06-28, 00:56:05,VALID,1000.26,VALID,0,VALID,92.944,VALID,0,VALID,23.2542,VALID,34,VALID,1.1832,
2009-06-28, 00:57:04,VALID,1000.23,VALID,0,VALID,92.9288,VALID,0,VALID,23.2542,VALID,37,VALID,1.19336,
2009-06-28, 00:58:04,VALID,1000.24,VALID,0,VALID,92.8448,VALID,0,VALID,23.2329,VALID,39,VALID,1.04531,
2009-06-28, 00:59:04,VALID,1000.21,VALID,0,VALID,92.8525,VALID,0,VALID,23.2347,VALID,43,VALID,1.07656,
2009-06-28, 01:00:04,VALID,1000.21,VALID,0,VALID,92.8296,VALID,0,VALID,23.2542,VALID,41,VALID,0.783984,
2009-06-28, 01:01:04,VALID,1000.19,VALID,0,VALID,92.7685,VALID,0,VALID,23.2347,VALID,41,VALID,0.628125,
2009-06-28, 01:02:04,VALID,1000.19,VALID,0,VALID,92.7533,VALID,0,VALID,23.2347,VALID,41,VALID,0.560547,
2009-06-28, 01:03:04,VALID,1000.19,VALID,0,VALID,92.7609,VALID,0,VALID,23.2347,VALID,41,VALID,0.610937,
2009-06-28, 01:04:04,VALID,1000.21,VALID,0,VALID,92.7914,VALID,0,VALID,23.2134,VALID,41,VALID,0.557813,
2009-06-28, 01:05:04,VALID,1000.16,VALID,0,VALID,92.7533,VALID,0,VALID,23.2152,VALID,41,VALID,0.602734,
2009-06-28, 01:06:04,VALID,1000.17,VALID,0,VALID,92.738,VALID,0,VALID,23.2152,VALID,41,VALID,0.572266,
2009-06-28, 01:07:04,VALID,1000.17,VALID,0,VALID,92.7609,VALID,0,VALID,23.2152,VALID,41,VALID,0.557813,
2009-06-28, 01:08:04,VALID,1000.18,VALID,0,VALID,92.7228,VALID,0,VALID,23.2152,VALID,41,VALID,0.343359,
2009-06-28, 01:09:04,VALID,1000.19,VALID,0,VALID,92.7228,VALID,0,VALID,23.2152,VALID,41,VALID,0.164453,
2009-06-28, 01:10:04,VALID,1000.19,VALID,0,VALID,92.7533,VALID,0,VALID,23.1957,VALID,41,VALID,0.25625,
2009-06-28, 01:11:04,VALID,1000.17,VALID,0,VALID,92.7457,VALID,0,VALID,23.1957,VALID,41,VALID,0.119922,
2009-06-28, 01:12:04,VALID,1000.14,VALID,0,VALID,92.738,VALID,0,VALID,23.1957,VALID,41,VALID,0,
2009-06-28, 01:13:04,VALID,1000.17,VALID,0,VALID,92.7762,VALID,0,VALID,23.1762,VALID,41,VALID,0,
2009-06-28, 01:14:04,VALID,1000.15,VALID,0,VALID,92.822,VALID,0,VALID,23.1762,VALID,41,VALID,0,
2009-06-28, 01:15:04,VALID,1000.13,VALID,0,VALID,92.8983,VALID,0,VALID,23.1762,VALID,41,VALID,0.105078,
2009-06-28, 01:16:04,VALID,1000.15,VALID,0,VALID,92.8906,VALID,0,VALID,23.1762,VALID,41,VALID,0,
2009-06-28, 01:17:04,VALID,1000.16,VALID,0,VALID,92.8906,VALID,0,VALID,23.1762,VALID,41,VALID,0,
2009-06-28, 01:18:04,VALID,1000.15,VALID,0,VALID,92.944,VALID,0,VALID,23.1549,VALID,41,VALID,0,
2009-06-28, 01:19:04,VALID,1000.12,VALID,0,VALID,93.0127,VALID,0,VALID,23.1549,VALID,41,VALID,0,
2009-06-28, 01:20:04,VALID,1000.13,VALID,0,VALID,93.0356,VALID,0,VALID,23.1762,VALID,41,VALID,0.0253906,
2009-06-28, 01:21:04,VALID,1000.11,VALID,0,VALID,93.0508,VALID,0,VALID,23.1549,VALID,41,VALID,0.0625,
2009-06-28, 01:22:04,VALID,1000.09,VALID,0,VALID,93.1805,VALID,0,VALID,23.1957,VALID,137,VALID,0.680859,
2009-06-28, 01:23:04,VALID,1000.04,VALID,0,VALID,93.2645,VALID,0,VALID,23.2152,VALID,141,VALID,0.646094,
2009-06-28, 01:24:04,VALID,1000.04,VALID,0,VALID,93.1958,VALID,0,VALID,23.2542,VALID,141,VALID,0.375391,
2009-06-28, 01:25:04,VALID,1000.03,VALID,0,VALID,93.1882,VALID,0,VALID,23.3127,VALID,141,VALID,0.521875,
2009-06-28, 01:26:04,VALID,1000.02,VALID,0,VALID,93.0432,VALID,0,VALID,23.3323,VALID,124,VALID,0.685938,
2009-06-28, 01:27:04,VALID,999.99,VALID,0,VALID,92.822,VALID,0,VALID,23.3518,VALID,132,VALID,0.977734,
2009-06-28, 01:28:04,VALID,999.971,VALID,0,VALID,92.6923,VALID,0,VALID,23.3713,VALID,134,VALID,0.739062,
2009-06-28, 01:29:04,VALID,999.958,VALID,0,VALID,92.5626,VALID,0,VALID,23.3908,VALID,134,VALID,0.535156,
2009-06-28, 01:30:04,VALID,999.938,VALID,0,VALID,92.4252,VALID,0,VALID,23.3908,VALID,134,VALID,0.468359,
2009-06-28, 01:31:04,VALID,999.913,VALID,0,VALID,92.3337,VALID,0,VALID,23.4103,VALID,134,VALID,0.616016,
2009-06-28, 01:32:04,VALID,999.93,VALID,0,VALID,92.2955,VALID,0,VALID,23.4103,VALID,134,VALID,0.589063,
2009-06-28, 01:33:04,VALID,999.884,VALID,0,VALID,92.2345,VALID,0,VALID,23.4298,VALID,133,VALID,0.590234,
2009-06-28, 01:34:04,VALID,999.889,VALID,0,VALID,92.1963,VALID,0,VALID,23.4085,VALID,129,VALID,0.857813,
2009-06-28, 01:35:04,VALID,999.852,VALID,0,VALID,92.1734,VALID,0,VALID,23.4298,VALID,127,VALID,1.01055,
2009-06-28, 01:36:04,VALID,999.88,VALID,0,VALID,92.1353,VALID,0,VALID,23.428,VALID,125,VALID,1.54141,
2009-06-28, 01:37:04,VALID,999.882,VALID,0,VALID,92.0437,VALID,0,VALID,23.428,VALID,126,VALID,1.79492,
2009-06-28, 01:38:04,VALID,999.865,VALID,0,VALID,91.9751,VALID,0,VALID,23.4688,VALID,129,VALID,1.62578,
2009-06-28, 01:39:04,VALID,999.855,VALID,0,VALID,91.9293,VALID,0,VALID,23.4688,VALID,128,VALID,0.9625,
2009-06-28, 01:40:04,VALID,999.834,VALID,0,VALID,91.914,VALID,0,VALID,23.4475,VALID,139,VALID,1.12773,
2009-06-28, 01:41:04,VALID,999.816,VALID,0,VALID,91.9674,VALID,0,VALID,23.4475,VALID,147,VALID,1.10977,
2009-06-28, 01:42:04,VALID,999.779,VALID,0,VALID,91.9827,VALID,0,VALID,23.4263,VALID,143,VALID,0.935938,
2009-06-28, 01:43:04,VALID,999.798,VALID,0,VALID,91.914,VALID,0,VALID,23.4475,VALID,138,VALID,0.984766,
2009-06-28, 01:44:04,VALID,999.787,VALID,0,VALID,91.7538,VALID,0,VALID,23.4475,VALID,138,VALID,1.12734,
2009-06-28, 01:45:04,VALID,999.802,VALID,0,VALID,91.5707,VALID,0,VALID,23.4671,VALID,137,VALID,1.26758,
2009-06-28, 01:46:04,VALID,999.804,VALID,0,VALID,91.4181,VALID,0,VALID,23.4671,VALID,132,VALID,1.45273,
2009-06-28, 01:47:04,VALID,999.795,VALID,0,VALID,91.1892,VALID,0,VALID,23.5061,VALID,132,VALID,1.53789,
2009-06-28, 01:48:04,VALID,999.819,VALID,0,VALID,91.0443,VALID,0,VALID,23.5256,VALID,140,VALID,1.19492,
2009-06-28, 01:49:04,VALID,999.784,VALID,0,VALID,90.884,VALID,0,VALID,23.5256,VALID,137,VALID,0.939844,
2009-06-28, 01:50:04,VALID,999.759,VALID,0,VALID,90.823,VALID,0,VALID,23.5061,VALID,137,VALID,0.450391,
2009-06-28, 01:51:04,VALID,999.712,VALID,0,VALID,90.7696,VALID,0,VALID,23.5061,VALID,137,VALID,0.233984,
2009-06-28, 01:52:04,VALID,999.708,VALID,0,VALID,90.7696,VALID,0,VALID,23.5061,VALID,139,VALID,0.3875,
2009-06-28, 01:53:04,VALID,999.691,VALID,0,VALID,90.7696,VALID,0,VALID,23.5061,VALID,152,VALID,0.489453,
2009-06-28, 01:54:04,VALID,999.708,VALID,0,VALID,90.6094,VALID,0,VALID,23.5451,VALID,176,VALID,0.577344,
2009-06-28, 01:55:04,VALID,999.711,VALID,0,VALID,90.4263,VALID,0,VALID,23.5646,VALID,176,VALID,0.291016,
2009-06-28, 01:56:04,VALID,999.742,VALID,0,VALID,90.2508,VALID,0,VALID,23.5841,VALID,176,VALID,0.225391,
2009-06-28, 01:57:04,VALID,999.731,VALID,0,VALID,90.0448,VALID,0,VALID,23.5841,VALID,176,VALID,0.01875,
2009-06-28, 01:58:04,VALID,999.751,VALID,0,VALID,89.9609,VALID,0,VALID,23.5841,VALID,176,VALID,0.141797,
2009-06-28, 01:59:04,VALID,999.77,VALID,0,VALID,89.7243,VALID,0.112286,VALID,23.6036,VALID,176,VALID,0.406641,
2009-06-28, 02:00:04,VALID,999.751,VALID,0,VALID,89.5565,VALID,0,VALID,23.6036,VALID,174,VALID,0.596484,
2009-06-28, 02:01:04,VALID,999.754,VALID,0,VALID,89.4039,VALID,0,VALID,23.6036,VALID,174,VALID,0.225781,
2009-06-28, 02:02:04,VALID,999.746,VALID,0,VALID,89.3886,VALID,0,VALID,23.625,VALID,174,VALID,0.145703,
2009-06-28, 02:03:04,VALID,999.756,VALID,0,VALID,89.5565,VALID,0,VALID,23.5823,VALID,174,VALID,0,
2009-06-28, 02:04:04,VALID,999.771,VALID,0,VALID,89.6862,VALID,0,VALID,23.5841,VALID,174,VALID,0.282422,
2009-06-28, 02:05:04,VALID,999.767,VALID,0,VALID,89.7701,VALID,0,VALID,23.5646,VALID,169,VALID,0.678125,
2009-06-28, 02:06:04,VALID,999.779,VALID,0,VALID,90.0677,VALID,0,VALID,23.5646,VALID,164,VALID,0.758984,
2009-06-28, 02:07:04,VALID,999.752,VALID,0,VALID,90.2889,VALID,0,VALID,23.5841,VALID,164,VALID,0.630078,
2009-06-28, 02:08:04,VALID,999.741,VALID,0,VALID,90.4034,VALID,0,VALID,23.6036,VALID,161,VALID,0.815625,
2009-06-28, 02:09:04,VALID,999.722,VALID,0,VALID,90.5331,VALID,0,VALID,23.6036,VALID,159,VALID,0.862109,
2009-06-28, 02:10:04,VALID,999.689,VALID,0,VALID,90.5865,VALID,0,VALID,23.5823,VALID,159,VALID,0.753516,
2009-06-28, 02:11:04,VALID,999.678,VALID,0,VALID,90.6017,VALID,0,VALID,23.6036,VALID,158,VALID,0.870703,
2009-06-28, 02:12:04,VALID,999.704,VALID,0,VALID,90.6475,VALID,0,VALID,23.6036,VALID,158,VALID,0.726563,
2009-06-28, 02:13:04,VALID,999.7,VALID,0,VALID,90.7543,VALID,0,VALID,23.6036,VALID,165,VALID,0.806641,
2009-06-28, 02:14:04,VALID,999.667,VALID,0,VALID,90.8535,VALID,0,VALID,23.5841,VALID,172,VALID,0.864453,
2009-06-28, 02:15:04,VALID,999.703,VALID,0,VALID,90.8611,VALID,0,VALID,23.5646,VALID,172,VALID,0.705078,
2009-06-28, 02:16:04,VALID,999.697,VALID,0,VALID,90.8993,VALID,0,VALID,23.5646,VALID,172,VALID,0.700391,
2009-06-28, 02:17:04,VALID,999.705,VALID,0,VALID,90.9985,VALID,0,VALID,23.5841,VALID,172,VALID,0.644922,
2009-06-28, 02:18:04,VALID,999.702,VALID,0,VALID,90.9909,VALID,0,VALID,23.5646,VALID,172,VALID,0.5875,
2009-06-28, 02:19:04,VALID,999.711,VALID,0,VALID,91.0061,VALID,0,VALID,23.5646,VALID,172,VALID,0.554297,
2009-06-28, 02:20:04,VALID,999.726,VALID,0,VALID,91.0061,VALID,0,VALID,23.5859,VALID,172,VALID,0.373047,
2009-06-28, 02:21:04,VALID,999.698,VALID,0,VALID,90.9985,VALID,0,VALID,23.5646,VALID,172,VALID,0.130859,
2009-06-28, 02:22:04,VALID,999.69,VALID,0,VALID,90.9909,VALID,0,VALID,23.5646,VALID,172,VALID,0,
2009-06-28, 02:23:04,VALID,999.713,VALID,0,VALID,90.9451,VALID,0,VALID,23.5256,VALID,172,VALID,0,
2009-06-28, 02:24:04,VALID,999.7,VALID,0,VALID,90.9146,VALID,0,VALID,23.5256,VALID,172,VALID,0,
2009-06-28, 02:25:04,VALID,999.713,VALID,0,VALID,91.0748,VALID,0,VALID,23.5256,VALID,172,VALID,0.198828,
2009-06-28, 02:26:04,VALID,999.707,VALID,0,VALID,91.0137,VALID,0,VALID,23.4458,VALID,279,VALID,0.530469,
2009-06-28, 02:27:04,VALID,999.706,VALID,0,VALID,91.1892,VALID,0,VALID,23.428,VALID,279,VALID,0.496094,
2009-06-28, 02:28:04,VALID,999.726,VALID,0,VALID,91.4639,VALID,0,VALID,23.389,VALID,279,VALID,0.418359,
2009-06-28, 02:29:04,VALID,999.713,VALID,0,VALID,91.6317,VALID,0,VALID,23.3695,VALID,279,VALID,0.182812,
2009-06-28, 02:30:04,VALID,999.73,VALID,0,VALID,91.8759,VALID,0,VALID,23.3092,VALID,279,VALID,0.326562,
2009-06-28, 02:31:04,VALID,999.716,VALID,0,VALID,91.7309,VALID,0,VALID,23.2915,VALID,27,VALID,0.988672,
2009-06-28, 02:32:04,VALID,999.723,VALID,0,VALID,92.0056,VALID,0,VALID,23.2329,VALID,33,VALID,1.04648,
2009-06-28, 02:33:04,VALID,999.739,VALID,0,VALID,92.2192,VALID,0,VALID,23.1939,VALID,34,VALID,0.729297,
2009-06-28, 02:34:04,VALID,999.745,VALID,0,VALID,92.4252,VALID,0,VALID,23.1939,VALID,34,VALID,0.289063,
2009-06-28, 02:35:04,VALID,999.729,VALID,0,VALID,92.3794,VALID,0,VALID,23.1939,VALID,34,VALID,0.196875,
2009-06-28, 02:36:04,VALID,999.721,VALID,0,VALID,92.1734,VALID,0,VALID,23.2134,VALID,34,VALID,0.566016,
2009-06-28, 02:37:04,VALID,999.705,VALID,0,VALID,92.1124,VALID,0,VALID,23.2117,VALID,34,VALID,0.636719,
2009-06-28, 02:38:04,VALID,999.703,VALID,0,VALID,92.0514,VALID,0,VALID,23.1939,VALID,22,VALID,0.894922,
2009-06-28, 02:39:04,VALID,999.734,VALID,0,VALID,92.059,VALID,0,VALID,23.1531,VALID,12,VALID,0.689844,
2009-06-28, 02:40:04,VALID,999.755,VALID,0,VALID,92.2421,VALID,0,VALID,23.1549,VALID,12,VALID,0.601563,
2009-06-28, 02:41:04,VALID,999.761,VALID,0,VALID,92.2192,VALID,0,VALID,23.1141,VALID,12,VALID,0.497656,
2009-06-28, 02:42:04,VALID,999.749,VALID,0,VALID,92.2726,VALID,0,VALID,23.0964,VALID,12,VALID,0.351172,
2009-06-28, 02:43:04,VALID,999.787,VALID,0,VALID,92.5778,VALID,0,VALID,23.0964,VALID,12,VALID,0.44375,
2009-06-28, 02:44:04,VALID,999.806,VALID,0,VALID,92.7457,VALID,0,VALID,23.0964,VALID,12,VALID,0.307031,
2009-06-28, 02:45:04,VALID,999.784,VALID,0,VALID,92.8296,VALID,0,VALID,23.0964,VALID,12,VALID,0.352734,
2009-06-28, 02:46:04,VALID,999.799,VALID,0,VALID,92.9135,VALID,0,VALID,23.0964,VALID,12,VALID,0,
2009-06-28, 02:47:04,VALID,999.812,VALID,0,VALID,92.9288,VALID,0,VALID,23.0769,VALID,12,VALID,0,
2009-06-28, 02:48:04,VALID,999.83,VALID,0,VALID,92.9822,VALID,0,VALID,23.0981,VALID,12,VALID,0,
2009-06-28, 02:49:04,VALID,999.842,VALID,0,VALID,92.9822,VALID,0,VALID,23.0573,VALID,12,VALID,0,
2009-06-28, 02:50:04,VALID,999.812,VALID,0,VALID,93.028,VALID,0,VALID,23.0378,VALID,12,VALID,0,
2009-06-28, 02:51:04,VALID,999.786,VALID,0,VALID,93.0814,VALID,0,VALID,23.0183,VALID,12,VALID,0,
2009-06-28, 02:52:04,VALID,999.815,VALID,0,VALID,93.0966,VALID,0,VALID,23.0378,VALID,12,VALID,0,
2009-06-28, 02:53:04,VALID,999.811,VALID,0,VALID,93.1577,VALID,0,VALID,23.0378,VALID,12,VALID,0,
2009-06-28, 02:54:04,VALID,999.838,VALID,0,VALID,93.1882,VALID,0,VALID,23.0183,VALID,12,VALID,0,
2009-06-28, 02:55:04,VALID,999.833,VALID,0,VALID,93.15,VALID,0,VALID,22.9988,VALID,12,VALID,0,
2009-06-28, 02:56:04,VALID,999.843,VALID,0,VALID,93.2187,VALID,0,VALID,22.9988,VALID,12,VALID,0.305469,
2009-06-28, 02:57:04,VALID,999.857,VALID,0,VALID,93.3866,VALID,0,VALID,22.9776,VALID,12,VALID,0.416406,
2009-06-28, 02:58:04,VALID,999.831,VALID,0,VALID,93.4781,VALID,0,VALID,22.9988,VALID,12,VALID,0.663281,
2009-06-28, 02:59:04,VALID,999.874,VALID,0,VALID,93.4552,VALID,0,VALID,22.9988,VALID,32,VALID,0.859375,
2009-06-28, 03:00:04,VALID,999.888,VALID,0,VALID,93.295,VALID,0,VALID,22.9988,VALID,41,VALID,0.959766,
2009-06-28, 03:01:04,VALID,999.901,VALID,0,VALID,93.089,VALID,0,VALID,22.9598,VALID,49,VALID,1.05781,
2009-06-28, 03:02:04,VALID,999.93,VALID,0,VALID,92.9745,VALID,0,VALID,22.9403,VALID,49,VALID,1.11797,
2009-06-28, 03:03:04,VALID,999.915,VALID,0,VALID,92.944,VALID,0,VALID,22.9208,VALID,42,VALID,1.37148,
2009-06-28, 03:04:04,VALID,999.905,VALID,0,VALID,92.8754,VALID,0,VALID,22.9013,VALID,27,VALID,1.08281,
2009-06-28, 03:05:04,VALID,999.91,VALID,0,VALID,92.822,VALID,0,VALID,22.8818,VALID,25,VALID,0.878125,
2009-06-28, 03:06:04,VALID,999.877,VALID,0,VALID,92.8372,VALID,0,VALID,22.8818,VALID,30,VALID,1.01406,
2009-06-28, 03:07:04,VALID,999.917,VALID,0,VALID,92.9135,VALID,0,VALID,22.8818,VALID,38,VALID,0.913672,
2009-06-28, 03:08:04,VALID,999.894,VALID,0,VALID,93.1119,VALID,0,VALID,22.8818,VALID,41,VALID,1.05547,
2009-06-28, 03:09:04,VALID,999.901,VALID,0,VALID,93.15,VALID,0,VALID,22.8605,VALID,35,VALID,1.00508,
2009-06-28, 03:10:04,VALID,999.884,VALID,0,VALID,93.1653,VALID,0,VALID,22.8818,VALID,35,VALID,0.858594,
2009-06-28, 03:11:04,VALID,999.909,VALID,0,VALID,93.0356,VALID,0,VALID,22.8623,VALID,56,VALID,1.07773,
2009-06-28, 03:12:04,VALID,999.916,VALID,0,VALID,92.9898,VALID,0.112286,VALID,22.8427,VALID,61,VALID,1.20508,
2009-06-28, 03:13:04,VALID,999.93,VALID,0,VALID,93.0051,VALID,0,VALID,22.8232,VALID,58,VALID,1.33242,
2009-06-28, 03:14:04,VALID,999.922,VALID,0,VALID,92.9745,VALID,0,VALID,22.802,VALID,61,VALID,1.2043,
2009-06-28, 03:15:04,VALID,999.927,VALID,0,VALID,92.9593,VALID,0,VALID,22.8037,VALID,58,VALID,1.04844,
2009-06-28, 03:16:04,VALID,999.914,VALID,0,VALID,92.9669,VALID,0,VALID,22.7842,VALID,48,VALID,1.11094,
2009-06-28, 03:17:04,VALID,999.918,VALID,0,VALID,92.9898,VALID,0,VALID,22.7647,VALID,45,VALID,0.897656,
2009-06-28, 03:18:04,VALID,999.935,VALID,0,VALID,92.9898,VALID,0,VALID,22.7647,VALID,42,VALID,0.716406,
2009-06-28, 03:19:04,VALID,999.952,VALID,0,VALID,93.0127,VALID,0,VALID,22.7647,VALID,42,VALID,0.737109,
2009-06-28, 03:20:04,VALID,999.947,VALID,0,VALID,93.0203,VALID,0,VALID,22.7647,VALID,47,VALID,0.732813,
2009-06-28, 03:21:04,VALID,999.984,VALID,0,VALID,92.9974,VALID,0,VALID,22.7452,VALID,61,VALID,0.873828,
2009-06-28, 03:22:04,VALID,999.973,VALID,0,VALID,92.944,VALID,0,VALID,22.7257,VALID,55,VALID,0.821094,
2009-06-28, 03:23:04,VALID,999.986,VALID,0,VALID,92.9288,VALID,0,VALID,22.7062,VALID,63,VALID,1.01797,
2009-06-28, 03:24:04,VALID,999.999,VALID,0,VALID,92.8525,VALID,0,VALID,22.7062,VALID,63,VALID,0.823828,
2009-06-28, 03:25:04,VALID,1000,VALID,0,VALID,92.8983,VALID,0,VALID,22.6867,VALID,69,VALID,0.810938,
2009-06-28, 03:26:04,VALID,1000.04,VALID,0,VALID,92.8754,VALID,0,VALID,22.7062,VALID,88,VALID,0.705469,
2009-06-28, 03:27:04,VALID,1000.03,VALID,0,VALID,92.8067,VALID,0,VALID,22.6867,VALID,89,VALID,0.616797,
2009-06-28, 03:28:04,VALID,1000.05,VALID,0,VALID,92.7609,VALID,0,VALID,22.6867,VALID,90,VALID,0.567187,
2009-06-28, 03:29:04,VALID,1000.02,VALID,0,VALID,92.7457,VALID,0,VALID,22.6655,VALID,90,VALID,0.33125,
2009-06-28, 03:30:04,VALID,1000.04,VALID,0,VALID,92.7991,VALID,0,VALID,22.6672,VALID,90,VALID,0.339844,
2009-06-28, 03:31:04,VALID,1000.06,VALID,0,VALID,92.8448,VALID,0,VALID,22.6672,VALID,90,VALID,0.370703,
2009-06-28, 03:32:04,VALID,1000.05,VALID,0,VALID,92.9135,VALID,0,VALID,22.6867,VALID,90,VALID,0.441406,
2009-06-28, 03:33:04,VALID,1000.03,VALID,0,VALID,92.883,VALID,0,VALID,22.7062,VALID,90,VALID,0.532422,
2009-06-28, 03:34:04,VALID,1000.05,VALID,0,VALID,92.7685,VALID,0,VALID,22.6867,VALID,90,VALID,0.613281,
2009-06-28, 03:35:04,VALID,1000.02,VALID,0,VALID,92.616,VALID,0,VALID,22.6867,VALID,101,VALID,0.588281,
2009-06-28, 03:36:04,VALID,1000.02,VALID,0,VALID,92.4481,VALID,0,VALID,22.7062,VALID,101,VALID,0.649219,
2009-06-28, 03:37:04,VALID,1000,VALID,0,VALID,92.4557,VALID,0,VALID,22.7062,VALID,126,VALID,0.722266,
2009-06-28, 03:38:04,VALID,1000.02,VALID,0,VALID,92.532,VALID,0,VALID,22.7452,VALID,139,VALID,0.847266,
2009-06-28, 03:39:04,VALID,999.977,VALID,0,VALID,92.6083,VALID,0,VALID,22.7647,VALID,146,VALID,1.03984,
2009-06-28, 03:40:04,VALID,1000.01,VALID,0,VALID,92.5702,VALID,0,VALID,22.8055,VALID,148,VALID,1.11172,
2009-06-28, 03:41:04,VALID,1000.02,VALID,0,VALID,92.41,VALID,0,VALID,22.8037,VALID,148,VALID,0.969922,
2009-06-28, 03:42:04,VALID,1000,VALID,0,VALID,92.2421,VALID,0,VALID,22.8232,VALID,156,VALID,1.01953,
2009-06-28, 03:43:04,VALID,1000.03,VALID,0,VALID,91.9064,VALID,0,VALID,22.8232,VALID,155,VALID,0.992969,
2009-06-28, 03:44:04,VALID,1000.01,VALID,0,VALID,91.6775,VALID,0,VALID,22.8232,VALID,149,VALID,1.03477,
2009-06-28, 03:45:04,VALID,1000.02,VALID,0,VALID,91.5402,VALID,0,VALID,22.8427,VALID,142,VALID,1.09727,
2009-06-28, 03:46:04,VALID,1000.07,VALID,0,VALID,91.4105,VALID,0,VALID,22.8427,VALID,130,VALID,0.919531,
2009-06-28, 03:47:04,VALID,1000.06,VALID,0,VALID,91.2884,VALID,0,VALID,22.8232,VALID,128,VALID,0.617188,